Find Starlink 3845

NORAD ID: 52541 Int'l Des: 2022-051 Owner: SPXS Country: US Constellation: starlink operational
LEOCIRCULAR

当前视图

正在加载3D地球...

About Starlink 3845

Starlink 3845 (NORAD 52541) is a starlink constellation satellite (v1.5) launched May 13, 2022 by SPXS of US. It operates in LEO, CIRCULAR orbit with a mass of 297.00 kg.

关于 Starlink 3845

正在加载描述...

即将过境

Passes for default location (London). Set your location on the main map for personalized predictions.

高度历史

Loading altitude history...

两行轨道根数

1 52541U 22051J 26169.80117647 .00000176 00000-0 29144-4 0 9993
2 52541 53.1610 40.1074 0001237 81.2530 278.8602 15.08831665226638
Epoch: Jun 18, 2026 • Age: 5 hours

当前状态

高度 543.1 km
速度 7.60 km/s
星下点 41.72°N, 97.94°W
发射日期 May 13, 2022
运行时间 4 years
类型 internet

技术详情

分类 Payload
质量 297.00 kg
干质量 275.00 kg
总质量 297.00 kg
长度 0.20 m
直径 2.80 m
跨度 9.00 m
形状 Box + pan
制造商 SPXS
平台类型 Starlink
阶段状态 In Orbit
所有者/国家 SPXS/US

Most Searched